ATLAS 5 CENTAUR R/B, 46919

Orbit data source: Space-Track

ATLAS 5 CENTAUR R/B, 46919 is space debris originally from a launch on Fri, 13 Nov 2020 UTC launched from the Air Force Eastern Test Range (AFETR). Debris objects in space refer to the collection of defunct objects orbiting the Earth. Examples of debris include non-operational satellites, rocket bodies, and fragments generated from explosions, collisions, or faulty payload assembly.

Loading next visibility...
Identifier
46919, 2020-083B
Orbit
Active
Last TLE update
3 days ago
Origin
Flag of USUnited Launch Alliance/Lockheed Martin (US)
Manufacturer
ULA Decatur
Mission
Spacecraft
Bus & Motor
CENTAUR SEC, RL10C-1
Mass
~2,020 kg wet, 2,020 kg dry
Launch date (UTC)
2020-11-13 (5 years ago)
Launch vehicle
Unknown
Launch site
Air Force Eastern Test Range (AFETR)
Object type
Payload
Rocket body
Debris
Shape & HBR
Cyl + 1 Nozzle, 11.7 m
Radar Cross Section
32.260 m²

Expand to show TLE details & history

TLE from 3 days ago
0 ATLAS 5 CENTAUR R/B
1 46919U 20083B   25184.11723665 -.00000046  00000-0  00000-0 0  9994
2 46919  58.9483  18.5896 0131831 208.9229 150.3887  3.86387351 31992
Epoch: 2025-07-03T02:48Z
TLE epoch observation values (Epoch: 2025-07-03T02:48:49.246Z)
Latitude
0.00002°
Longitude
54.99849°
Altitude
10,974.473 km
Speed
4.765 km/s
True Right ascension
01h 14m 22s
True Declination
0° 00' 00"
Sunlit
Object was in daylight at epoch
Visualization orbit readout
Latitude
-58.03582°
Longitude
-51.1599°
Altitude
10,658.942 km
Speed
4.857 km/s
Apparent Right ascension
20h 11m 25s
Apparent Declination
-71° 57' 57"
Sunlit
Object is in daylight
Visualization observer readout
Local Sidereal Time
15:35:41
Azimuth
160.16° S
Elevation
-31.655°
Doppler factor
1
Orbital elements
Apogee altitude
11,002.601 km
Perigee altitude
10,550.3 km
Semi-major axis
17,154.588 km
Eccentricity
0.01318
Inclination
58.9483°
RAAN
18.5896°
Arg. of periapsis
208.9229°
True anomaly
Unknown
Mean anomaly
150.3887°
Eccentric anomaly
Unknown
Mean motion
0.96599 °/min
Orbital period
372.67 mins
BSTAR
0
Loading maneuver chart data...
Loading SW <> Apogee altitude chart data...
Loading historical data...
Loading historical data...
Loading historical data...
Loading historical data...
Loading historical data...
Loading historical data...
Loading historical data...
Other satellites on launch #83 in the year 2020 (2020-11-13 UTC)

ATLAS 5 CENTAUR R/B Visibility forecast

Observer location: undefined°, undefined°

Span
Click to sort rows by Start time (UTC) header in descending order
Start Az.
Max El. time (UTC)
Max El. Az.
Max El.
End time (UTC)
End Az.
115 mins2025-07-06 11:14:38.521Z156.736° SSE2025-07-06 12:13:38.521Z93.801° ESE34.752°2025-07-06 13:09:38.521Z37.483° NE
148 mins2025-07-06 18:08:38.521Z267.161° W2025-07-06 19:24:38.521Z4.478° NNE41.039°2025-07-06 20:36:38.521Z98.039° ESE
105 mins2025-07-07 01:36:38.521Z322.22° NNW2025-07-07 02:28:38.521Z268.463° W32.247°2025-07-07 03:21:38.521Z209.186° SW
|